Regional Weather Roundup
Issued by NWS Charleston, SC

Home | Current Version | Previous Version | Text Only | Print | Product List | Glossary On
Versions: 1 2 3 4 5 6 7 8 9 10 11 12 13 14 15 16 17 18 19 20 21 22 23 24 25 26 27 28 29 30 31 32 33 34 35 36 37 38 39 40 41 42 43 44 45 46 47 48 49 50
000
ASUS42 KCHS 222127
RWRCHS

REGIONAL WEATHER ROUNDUP
NATIONAL WEATHER SERVICE CHARLESTON SC
400 PM EST WED NOV 22 2017

NOTE: "FAIR" INDICATES FEW OR NO CLOUDS BELOW 12,000 FEET WITH NO
SIGNIFICANT WEATHER AND/OR OBSTRUCTIONS TO VISIBILITY.

NOT ALL STATIONS ARE QUALITY CONTROLLED. USE DATA WITH CAUTION...
ESPECIALLY DEWPOINT OBSERVATIONS.

SCZ027-030-031-034>040-042>050-222200-
...SOUTHEAST SOUTH CAROLINA...

CITY           SKY/WX    TMP DP  RH WIND       PRES   REMARKS
N CHARLESTON   PTSUNNY   67  56  67 NE8       29.98R
WATERFRONT PRK NOT AVBL
JOHNS ISLAND   FAIR      68  57  68 N5        29.98R
PINOPOLIS        N/A     64  57  77 VRB2      29.89S
MONCKS CORNER  FAIR      64  55  72 CALM      29.99R
SUMMERVILLE    FAIR      66  55  68 NW6       30.00R
BEAUFORT MCAS  PTSUNNY   69  59  70 NW9       29.98R
BEAUFORT ARPT  FAIR      68  57  68 NW5       29.98R
HILTON HEAD IS MOSUNNY   70  57  64 N6        29.98S
WALTERBORO     PTCLDY    68  54  60 N3        29.99R
ALLENDALE      MOCLDY    68  54  60 NE5       29.98R

...SOUTHERN MIDLANDS AND PEE DEE...

CITY           SKY/WX    TMP DP  RH WIND       PRES   REMARKS
GEORGETOWN     FAIR      66  52  59 N6        29.99R
KINGSTREE      FAIR      66  48  52 NW3       29.98S
ORANGEBURG     MOSUNNY   67  50  54 NE6       29.98S
BARNWELL         N/A     68  52  56 N7        30.00R
AIKEN          FAIR      63  46  55 NW5       30.03S
MANNING        FAIR      66  55  68 MISG      29.99R
COLUMBIA       PTSUNNY   67  51  56 N8        30.00R
SUMTER         SUNNY     67  46  46 N8        29.97R
FLORENCE       SUNNY     67  48  50 N12       29.99R
MYRTLE BEACH   SUNNY     68  51  54 N10       29.98R
N MYRTLE BEACH SUNNY     69  50  50 N7        29.96R

$$

GAZ063-065-086>088-099>101-113>116-118-119-134>141-150-222200-
...SOUTHEAST GEORGIA...

CITY           SKY/WX    TMP DP  RH WIND       PRES   REMARKS
SAVANNAH ARPT  PTSUNNY   65  58  78 W6        30.00R
HUNTER AAF     MOSUNNY   66  57  72 NW3       29.97R
FORT STEWART   CLOUDY    66  57  72 N6        29.98R
STATESBORO     SUNNY     67  54  62 CALM      29.99S
SYLVANIA       CLEAR     67  58  72 NE3       30.00R
CLAXTON        FAIR      67  58  72 CALM      30.00R

...CSRA...CENTRAL AND FAR SOUTHEAST GEORGIA...

CITY           SKY/WX    TMP DP  RH WIND       PRES   REMARKS
THOMSON        MOSUNNY   65  50  59 E6        30.05S
AUGUSTA-BUSH   MOSUNNY   68  51  54 NE3       29.98F
AUGUSTA-DANIEL MOSUNNY   68  52  56 N6        30.00S
SWAINSBORO     FAIR      68  55  64 CALM      30.00R
VIDALIA        MOSUNNY   68  59  73 CALM      30.00R
EASTMAN        FAIR      71  45  40 CALM      30.02R
HAZLEHURST     MOCLDY    67  53  59 CALM      29.99S
ALMA           MOSUNNY   65  58  78 N6        30.00R
WAYCROSS       PTSUNNY   69  60  74 NE8       29.99R
JESUP          FAIR      70  57  64 N3        30.00R
BAXLEY         CLOUDY    63  59  88 CALM      30.01R
BRUNSWICK      MOSUNNY   70  57  64 CALM      29.99R
SAINT SIMONS   SUNNY     67  61  81 E6        29.98S

$$

SCZ027-028-034-036>038-045-046-048>050-GAZ119-141-222200-
...LAKE AND SUPPLEMENTAL COASTAL OBSERVATIONS...

STATION/POSITION TIME  TEMP    WIND        PRES    WAVE   SWELL
                       AIR SEA DIR/SP/G            HT/PER HT/PER/DIR
                 (UTC) (F)     (DEG/KT/KT) (MB)    (FT/S) (FT/S/D)
WINYAH BAY       2045   68      10/  4     1015.0R
LAKE MURRAY      2050   64     330/  1/  5 1015.2R
ACE BASIN NERRS  2045   69     340/  2     1015.0S
FORT PULASKI     2100   66 62  300/ 10/ 10 1015.7
SAPELO ISLAND    2100   67     110/  5     1015.0

$$

ANZ835-935-AMZ111-154-330-350-352-354-370-450-454-472-222200-
...C-MAN AND BUOY OBSERVATIONS...

STATION/POSITION TIME  TEMP    WIND        PRES    WAVE   SWELL
                       AIR SEA DIR/SP/G            HT/PER HT/PER/DIR
                 (UTC) (F)     (DEG/KT/KT) (MB)    (FT/S) (FT/S/D)
BUOY 41004       2110   67 74   10/ 10/ 12 1014.6
BUOY 41008       2050   63 68  360/  4/  6 1015.2R   3/ 8   3/ 90/ 8
FOLLY BEACH CMAN 2100   66     340/  6/  9 1015.9R
CAPERS NEARSHORE 2108   69 63  130/  2/  4 1014.9R
FRIPP NEARSHORE  2108   63 63  170/  6/  8 1014.5R


STATION/POSITION TIME  TEMP    WIND        PRES    WAVE   SWELL
                       AIR SEA DIR/SP/G            HT/PER HT/PER/DIR
                 (UTC) (F)     (DEG/KT/KT) (MB)    (FT/S) (FT/S/D)
5E ST. MARYS GA  2100      67                N/A     3/ 8
FRYING PAN BUOY  2110   66 72  360/  6/  8 1014.6
BUOY 41025       2110   62 74   10/ 23/ 31 1014.1
CAPE LOOKOUT NC  2100           10/ 10/ 12 1014.2R
BUOY 41002       2050   74 76  340/ 14/ 17 1012.0R   6/ 9   5/130/ 9
BUOY 41010       NOT AVBL
ST AUGUSTINE FL  2100   67 70   20/ 15/ 17 1015.3R


$$




USA.gov is the U.S. government's official web portal to all federal, state and local government web resources and services.